Location: Newark
(40.3500°N, 15.2333°E)
Time: 14:07:11
(UTC+00:00)

Courier 1B Rocket - Visible Passes

Search period start: 17 January 2020 00:00
Search period end: 27 January 2020 00:00
Orbit: 920 x 1202 km, 28.2° (Epoch: 16 January)

Date Brightness Start Highest point End Pass type
(mag) Time Alt. Az. Time Alt. Az. Time Alt. Az.
17 Jan 6.8 17:09:08 10° WSW 17:13:52 23° S 17:18:40 10° SE visible
17 Jan 7.3 19:04:25 10° SW 19:06:18 11° SSW 19:07:27 11° SSW visible
18 Jan 7.2 18:02:11 10° SW 18:05:37 15° SSW 18:09:04 10° SSE visible
19 Jan 7.1 17:00:42 10° WSW 17:04:55 19° SSW 17:09:09 10° SSE visible
20 Jan 7.5 17:55:19 10° SW 17:56:35 11° SSW 17:57:51 10° SSW visible
21 Jan 7.3 16:52:37 10° SW 16:55:55 15° SSW 16:59:12 10° SSE visible
23 Jan 7.8 16:45:56 10° SW 16:46:52 10° SSW 16:47:49 10° SSW visible
